Change the Weather History Date:

Wednesday, August 14, 2013

  Actual Average (KHFF) Record (KHFF)
Temperature  
Mean Temperature 74 °F -  
Max Temperature 78 °F 88 °F 95 °F (2007)
Min Temperature 69 °F 69 °F 59 °F (2008)
Cooling Degree Days 9    
Growing Degree Days 24 (Base 50)    
Moisture  
Dew Point 68 °F    
Average Humidity 83    
Maximum Humidity 96    
Minimum Humidity 65    
Precipitation  
Precipitation 0.00 in - - ()
Sea Level Pressure  
Sea Level Pressure 29.96 in    
Wind  
Wind Speed 3 mph (NNE)    
Max Wind Speed 9 mph    
Max Gust Speed -    
Visibility 10 miles    
Events Rain    
Averages and records for this station are not official NWS values.
T = Trace of Precipitation, MM = Missing Value Source: NWS Daily Summary

Daily Weather History Graph

Daily Weather History Graph

Search for Another Location

Airport or City:

Trip Planner

Search our weather history database for the weather conditions in past years. The results will help you decide how hot, cold, wet, or windy it might be!

Date:

Astronomy

Aug. 14, 2013 Rise Set
Actual Time 6:38 AM EDT 8:08 PM EDT
Civil Twilight 6:11 AM EDT 8:34 PM EDT
Nautical Twilight 5:39 AM EDT 9:06 PM EDT
Astronomical Twilight 5:05 AM EDT 9:40 PM EDT
Moon 2:15 PM EDT (8/14) 12:02 AM EDT (8/14)
Length of Visible Light 14h 23m
Length of Day
13h 29m
First Quarter, 52% of the Moon is Illuminated
Aug 14
First Quarter
Aug 20
Full
Aug 28
Last Quarter
Sep 5
New
Sep 12
First Quarter

Hourly Weather History & Observations

Time (EDT) Temp. Dew Point Humidity Pressure Visibility Wind Dir Wind Speed Gust Speed Precip Events Conditions
12:15 AM 75.0 °F 72.7 °F 92% 29.86 in 10.0 mi WSW 3.5 mph - N/A   Clear
12:35 AM 75.2 °F 73.4 °F 94% 29.86 in 10.0 mi Calm Calm - N/A   Scattered Clouds
12:55 AM 74.7 °F 73.4 °F 96% 29.86 in 10.0 mi Calm Calm - N/A   Scattered Clouds
1:15 AM 74.3 °F 72.7 °F 95% 29.86 in 10.0 mi Calm Calm - N/A   Clear
1:35 AM 73.8 °F 72.1 °F 95% 29.87 in 10.0 mi Calm Calm - N/A   Clear
1:55 AM 73.4 °F 72.1 °F 96% 29.87 in 10.0 mi Calm Calm - N/A   Scattered Clouds
2:15 AM 73.4 °F 71.8 °F 95% 29.87 in 10.0 mi Calm Calm - N/A   Scattered Clouds
2:35 AM 73.6 °F 71.8 °F 94% 29.87 in 10.0 mi Calm Calm - N/A   Scattered Clouds
2:55 AM 73.4 °F 71.6 °F 94% 29.86 in 10.0 mi WNW 4.6 mph - N/A   Mostly Cloudy
3:15 AM 73.6 °F 71.6 °F 93% 29.86 in 10.0 mi Calm Calm - N/A   Overcast
3:35 AM 73.4 °F 71.6 °F 94% 29.86 in 10.0 mi Calm Calm - N/A   Mostly Cloudy
3:55 AM 73.4 °F 71.6 °F 94% 29.86 in 10.0 mi NW 3.5 mph - N/A   Mostly Cloudy
4:15 AM 73.6 °F 71.6 °F 93% 29.86 in 10.0 mi NNW 3.5 mph - N/A   Mostly Cloudy
4:35 AM 72.9 °F 71.4 °F 95% 29.86 in 10.0 mi NNW 3.5 mph - N/A   Scattered Clouds
4:55 AM 72.9 °F 71.6 °F 96% 29.86 in 10.0 mi Calm Calm - N/A   Clear
5:15 AM 72.9 °F 71.6 °F 96% 29.87 in 10.0 mi NW 3.5 mph - N/A   Scattered Clouds
5:35 AM 72.9 °F 71.2 °F 95% 29.87 in 10.0 mi NNW 3.5 mph - N/A   Scattered Clouds
5:55 AM 72.7 °F 71.2 °F 95% 29.88 in 10.0 mi Calm Calm - N/A   Clear
6:15 AM 72.7 °F 71.1 °F 95% 29.89 in 10.0 mi Calm Calm - N/A   Clear
6:35 AM 72.5 °F 70.9 °F 95% 29.90 in 10.0 mi NW 3.5 mph - N/A   Clear
6:55 AM 72.5 °F 70.9 °F 95% 29.91 in 10.0 mi Calm Calm - N/A   Scattered Clouds
7:15 AM 72.3 °F 70.7 °F 95% 29.92 in 10.0 mi Calm Calm - N/A   Scattered Clouds
7:35 AM 72.9 °F 70.7 °F 93% 29.92 in 10.0 mi Calm Calm - N/A   Mostly Cloudy
7:55 AM 73.4 °F 70.3 °F 90% 29.94 in 10.0 mi Calm Calm - N/A   Overcast
8:15 AM 73.6 °F 69.8 °F 88% 29.94 in 10.0 mi NNW 4.6 mph - N/A   Overcast
8:35 AM 73.6 °F 68.9 °F 85% 29.95 in 10.0 mi North 5.8 mph - N/A   Overcast
8:55 AM 73.8 °F 68.4 °F 83% 29.95 in 10.0 mi North 4.6 mph - N/A   Mostly Cloudy
9:15 AM 73.8 °F 68.0 °F 82% 29.95 in 10.0 mi North 5.8 mph - N/A   Mostly Cloudy
9:35 AM 74.3 °F 66.4 °F 76% 29.96 in 10.0 mi NNE 5.8 mph - N/A   Scattered Clouds
9:55 AM 74.5 °F 65.7 °F 74% 29.97 in 10.0 mi North 8.1 mph - N/A Rain Light Rain
10:15 AM 74.8 °F 64.9 °F 71% 29.98 in 10.0 mi North 8.1 mph - N/A   Light Drizzle
10:35 AM 74.7 °F 64.2 °F 70% 29.98 in 10.0 mi North 8.1 mph - N/A   Light Drizzle
10:55 AM 74.8 °F 64.6 °F 70% 29.98 in 10.0 mi North 6.9 mph - N/A   Clear
11:15 AM 74.8 °F 64.6 °F 70% 29.99 in 10.0 mi NNE 5.8 mph - N/A   Clear
11:35 AM 75.2 °F 64.9 °F 70% 29.99 in 10.0 mi NNE 9.2 mph - N/A   Clear
11:55 AM 75.2 °F 64.9 °F 70% 29.99 in 10.0 mi NNE 8.1 mph - N/A   Scattered Clouds
12:15 PM 75.0 °F 64.6 °F 70% 29.99 in 10.0 mi NE 5.8 mph - N/A   Clear
12:35 PM 75.6 °F 65.1 °F 70% 30.00 in 10.0 mi NNE 6.9 mph - N/A   Clear
12:55 PM 76.3 °F 65.7 °F 70% 29.99 in 10.0 mi North 6.9 mph - N/A   Clear
1:15 PM 77.0 °F 65.8 °F 68% 29.99 in 10.0 mi NNE 8.1 mph - N/A   Clear
1:35 PM 78.8 °F 66.2 °F 65% 29.98 in 10.0 mi North 9.2 mph - N/A   Clear
1:55 PM 78.3 °F 66.4 °F 67% 29.98 in 10.0 mi NNE 4.6 mph - N/A   Scattered Clouds
2:15 PM 78.1 °F 66.4 °F 67% 29.98 in 10.0 mi NNE 4.6 mph - N/A   Mostly Cloudy
2:35 PM 78.4 °F 66.7 °F 67% 29.98 in 10.0 mi NNE 5.8 mph - N/A   Scattered Clouds
2:55 PM 78.8 °F 66.9 °F 67% 29.98 in 7.0 mi NNE 6.9 mph - N/A   Mostly Cloudy
3:55 PM 78.1 °F 67.3 °F 69% 29.98 in 10.0 mi Calm Calm - N/A   Mostly Cloudy
4:15 PM 77.0 °F 67.5 °F 72% 29.99 in 10.0 mi Calm Calm - N/A Rain Light Rain
4:35 PM 76.5 °F 68.9 °F 77% 29.98 in 10.0 mi East 3.5 mph - N/A   Mostly Cloudy
4:55 PM 75.2 °F 69.1 °F 81% 29.98 in 10.0 mi ENE 4.6 mph - N/A   Overcast
5:15 PM 74.7 °F 68.0 °F 80% 29.98 in 10.0 mi East 4.6 mph - N/A   Overcast
5:35 PM 74.3 °F 68.2 °F 81% 29.98 in 10.0 mi Calm Calm - N/A   Overcast
5:55 PM 74.5 °F 67.3 °F 78% 29.99 in 10.0 mi NE 3.5 mph - N/A   Overcast
6:15 PM 74.5 °F 66.6 °F 76% 29.99 in 10.0 mi Calm Calm - N/A   Overcast
6:35 PM 74.5 °F 67.1 °F 78% 30.00 in 10.0 mi Calm Calm - N/A   Mostly Cloudy
6:55 PM 74.3 °F 67.3 °F 79% 30.00 in 10.0 mi Calm Calm - N/A   Overcast
7:15 PM 73.8 °F 68.0 °F 82% 30.00 in 10.0 mi Calm Calm - N/A   Overcast
7:35 PM 73.4 °F 67.8 °F 83% 30.01 in 10.0 mi NNE 3.5 mph - N/A   Overcast
7:55 PM 72.9 °F 67.3 °F 83% 30.01 in 10.0 mi NNE 4.6 mph - N/A   Overcast
8:15 PM 72.0 °F 66.7 °F 84% 30.03 in 10.0 mi NE 3.5 mph - N/A   Scattered Clouds
8:35 PM 71.6 °F 66.6 °F 84% 30.03 in 10.0 mi ENE 3.5 mph - N/A   Scattered Clouds
8:55 PM 71.2 °F 66.0 °F 84% 30.04 in 10.0 mi NNE 3.5 mph - N/A   Clear
9:15 PM 70.9 °F 65.8 °F 84% 30.05 in 10.0 mi NE 3.5 mph - N/A   Mostly Cloudy
9:35 PM 70.9 °F 66.0 °F 85% 30.05 in 10.0 mi ENE 3.5 mph - N/A   Overcast
9:55 PM 70.7 °F 66.0 °F 85% 30.05 in 10.0 mi ENE 3.5 mph - N/A   Overcast
10:15 PM 70.7 °F 66.0 °F 85% 30.06 in 10.0 mi ENE 3.5 mph - N/A   Mostly Cloudy
10:35 PM 70.3 °F 65.8 °F 86% 30.07 in 10.0 mi Calm Calm - N/A   Mostly Cloudy
10:55 PM 70.2 °F 65.3 °F 85% 30.08 in 10.0 mi Calm Calm - N/A   Mostly Cloudy
11:15 PM 70.3 °F 64.8 °F 82% 30.08 in 10.0 mi Calm Calm - N/A   Overcast
11:35 PM 70.0 °F 64.6 °F 83% 30.08 in 10.0 mi NE 3.5 mph - N/A   Overcast
11:55 PM 69.8 °F 63.7 °F 81% 30.08 in 10.0 mi ENE 4.6 mph - N/A   Overcast